CZ-6A DEB, 61480

Orbit data source: Space-Track

CZ-6A DEB, 61480 is space debris in LEO originally from a launch on Tue, 06 Aug 2024 UTC launched from the Taiyaun Space Center, China (TSC). Debris objects in space refer to the collection of defunct objects orbiting the Earth. Examples of debris include non-operational satellites, rocket bodies, and fragments generated from explosions, collisions, or faulty payload assembly.

Not visible in the next 10 days
Identifier
61480, 2024-140AAN
Orbit
LEO
Country
Flag of CNCN / PRC
Related business
Manufacturer
SAST
Mission
Spacecraft
Bus & Motor
Unknown
Mass
Unknown
Launch date (UTC)
2024-08-06 (2 years ago)
Launch vehicle
Unknown
Launch site
Taiyaun Space Center, China (TSC)
Object type
Payload
Rocket body
Debris
Shape & HBR
Unknown shape, 0.1 m
Radar Cross Section
Medium (>0.1 m² and <1 m²)

Expand to show TLE details & history
Last TLE update: 13 hours ago

TLE from 13 hours ago
0 CZ-6A DEB
1 61480U 24140AAN 26171.30086375  .00178296  00000-0  38237-2 0  9997
2 61480  89.3540 297.4154 0030917  57.7163 302.7083 15.43583288 97681
Epoch: 2026-06-20T07:13Z
TLE epoch observation values (Epoch: 2026-06-20T07:13:14.628Z)
Latitude
-0.00012°
Longitude
-79.413°
Altitude
427.433 km
Speed
7.661 km/s
True Right ascension
19h 49m 39s
True Declination
0° 00' 00"
Sunlit
Object was in full shadow at epoch
Visualization orbit readout
Latitude
Unknown
Longitude
Unknown
Altitude
Unknown
Speed
Unknown
Apparent Right ascension
Unknown
Apparent Declination
Unknown
Sunlit
N/A
Visualization observer readout
Local Sidereal Time
07:20:50
Azimuth
Unknown
Elevation
Unknown
Doppler factor
Unknown
Orbital elements
Apogee altitude
453.375 km
Perigee altitude
411.263 km
Semi-major axis
6,810.456 km
Eccentricity
0.00309
Inclination
89.354°
RAAN
297.4154°
Arg. of periapsis
57.7163°
True anomaly
302.40957°
Mean anomaly
302.7083°
Eccentric anomaly
302.559°
Mean motion
3.8617 °/min
Orbital period
93.22 mins
BSTAR
0.0038237
Loading maneuver chart data...
Computing Atmospheric mass density...
Loading historical data...
Loading historical data...
Loading historical data...
Loading historical data...
Loading historical data...
Loading historical data...
Loading historical data...

Documentation

Showing up to 5 results
|